Regional Weather Roundup
Issued by NWS

Home | Current Version | Previous Version | Text Only | Print | Product List | Glossary On
Versions: 1 2 3 4 5 6 7 8 9 10 11 12 13 14 15 16 17 18 19 20 21 22 23 24 25 26 27 28 29 30 31 32 33 34 35 36 37 38 39 40 41 42 43 44 45 46 47 48 49 50
000
ASUS43 KMPX 221310
RWRMN
WEATHER ROUNDUP FOR MINNESOTA
NATIONAL WEATHER SERVICE TWIN CITIES/CHANHASSEN MN
700 AM CST FRI NOV 22 2019


NOTE: "FAIR" INDICATES FEW OR NO CLOUDS BELOW 12,000 FEET WITH NO
SIGNIFICANT WEATHER AND/OR OBSTRUCTIONS TO VISIBILITY. N/A MEANS
CURRENT SKY AND/OR WEATHER CONDITIONS ARE NOT AVAILABLE.

MNZ060>063-068>070-221400-
   Twin Cities Metro

CITY           SKY/WX    TMP DP  RH WIND       PRES   REMARKS
TWIN CITIES    MOCLDY    21  14  74 W5        30.23S WCI  15
ST PAUL        MOCLDY    19  13  77 NW3       30.24S
CRYSTAL        CLOUDY    20  13  74 W6        30.21S WCI  12
BLAINE         MOCLDY    21  16  79 W5        30.21S WCI  15
LAKEVILLE        N/A     21  18  86 W6        30.22S WCI  14
EDEN PRAIRIE   CLOUDY    21  13  71 W6        30.22S WCI  13
SOUTH ST PAUL  MOCLDY    21  15  77 W3        30.23S
LAKE ELMO      FAIR      19  16  86 CALM      30.23S
$$
MNZ001>005-007-008-013>017-022>024-027-028-221400-
   Northwest Minnesota

CITY           SKY/WX    TMP DP  RH WIND       PRES   REMARKS
BEMIDJI        FAIR      10   7  89 S3        30.08F
HALLOCK        CLEAR     12  10  92 S13       30.01F WCI  -3
WARROAD        FAIR      16  10  79 SW9       30.01F WCI   4
THIEF RVR FALL CLEAR     15  11  83 S12       30.07F WCI   2
CROOKSTON      CLEAR     16  14  93 S15       30.09F WCI   1
FOSSTON        CLEAR     10   9  92 S10       30.10R WCI  -3
DETROIT LAKES  FAIR      16  14  93 S7        30.13S WCI   6
MOORHEAD       CLEAR     18  10  73 S10       30.15F WCI   6
PARK RAPIDS    FAIR      13   9  84 S5        30.11F WCI   5
MAHNOMEN       FAIR      13  11  91 S10       30.11S WCI   0
$$
MNZ006-009>011-018-025>026-221400-
   North Central Minnesota

CITY           SKY/WX    TMP DP  RH WIND       PRES   REMARKS
BAUDETTE       FAIR      13   9  84 S9        30.03F WCI   1
FLAG ISLAND      N/A     16  10  79 S13       29.97F WCI   2
INTL FALLS     FAIR      13  10  88 SW7       30.05S WCI   3
WASKISH          N/A     12   9  85 CALM      30.07F
BIG FORK       FAIR      10   7  85 CALM      30.13F
LONGVILLE      FAIR      14  12  92 S5        30.13S WCI   6
GRAND RAPIDS   FAIR      14  12  92 SW6       30.13F WCI   5
CRANE LAKE     FAIR      12  10  92 CALM      30.11S
ORR            FAIR      12  10  92 SW3       30.06F
COOK           FAIR      14  12  92 CALM      30.08S
WALKER         FAIR      13  10  85 SW7       30.10F WCI   3
$$
MNZ012-019>021-037-221400-
   Northeast Minnesota

CITY           SKY/WX    TMP DP  RH WIND       PRES   REMARKS
DULUTH         CLOUDY    16  12  84 W9        30.11S WCI   4
ELY            MOCLDY    14  12  92 CALM      30.08S
HIBBING        MOCLDY    14  11  87 CALM      30.10S
EVELETH        CLOUDY    15  13  91 SW6       30.11S WCI   7
DULUTH HARBOR  CLOUDY    19  16  86 SW8       30.19S WCI   9
TWO HARBORS    CLOUDY    16   9  73 SW7       30.12S WCI   6
SILVER BAY     FAIR      16  10  79 SW3       30.11S
GRAND MARAIS     N/A     21  15  78 W5        30.12S WCI  15
G MARAIS ARPRT MOCLDY    14  10  85 SW3       30.02S
$$
MNZ029>031-032-039>041-046>048-054>057-064-221400-
   West Central Minnesota

CITY           SKY/WX    TMP DP  RH WIND       PRES   REMARKS
FERGUS FALLS   FAIR      12  10  92 S6        30.20R WCI   3
MORRIS         CLEAR     10  10 100 S5        30.15S WCI   2
ALEXANDRIA     FAIR      13  10  88 SW7       30.17F WCI   3
ELBOW LAKE     FAIR      12  10  94 S6        30.18S WCI   2
WADENA         FAIR      12  10  92 S3        30.14S
GLENWOOD       FAIR      12  10  92 S5        30.19R WCI   4
APPLETON       CLEAR     16  12  86 CALM      30.21F
BENSON         CLEAR     12  10  92 S5        30.22S WCI   4
ORTONVILLE     CLEAR     14  10  85 S6        30.19S WCI   5
MADISON        CLEAR     16  12  86 SW6       30.22S WCI   7
WILLMAR        FAIR      14  10  85 CALM      30.25S
$$
MNZ033>034-036-042>043-049>051-058-059-221400-
   Central Minnesota

CITY           SKY/WX    TMP DP  RH WIND       PRES   REMARKS
ST CLOUD       MOCLDY    17  13  84 W3        30.20S
SAUK CENTRE      N/A     14  12  90 SW8       30.19S WCI   3
PAYNESVILLE    CLOUDY    15  15 100 SW3       30.21S
AITKIN         MOCLDY    14  12  92 CALM      30.14F
PINE RIVER     FAIR      12  10  92 CALM      30.16F
BRAINERD       FAIR      18  13  80 SW6       30.15F WCI  10
STAPLES        FAIR      12  10  92 CALM      30.15S
LONG PRAIRIE   FAIR      14  12  92 SW5       30.17F WCI   6
LITTLE FALLS   MOCLDY    18  16  93 CALM      30.18F
LITCHFIELD       N/A     16  16 100 SW3       30.22R
BUFFALO        CLOUDY    19  15  84 MISG      30.22S
MAPLE LAKE       N/A     18  16  90 CALM      30.22S
HUTCHINSON     CLOUDY    17  15  93 SW7       30.24R WCI   7
$$
MNZ037-044-045-052-053-221400-
   East Central Minnesota

CITY           SKY/WX    TMP DP  RH WIND       PRES   REMARKS
PRINCETON      CLOUDY    19  16  86 CALM      30.20S
MORA           MOCLDY    18  14  86 W5        30.20F WCI  11
CAMBRIDGE      CLOUDY    19  12  73 CALM      30.21S
RUSH CITY      FAIR      18  14  86 CALM      30.21S
MOOSE LAKE     FAIR      18  14  86 SW3       30.15F
HINCKLEY       CLOUDY    21  18  86 CALM      30.18F
CLOQUET        CLOUDY    18  12  79 SW8       30.13F WCI   7
MCGREGOR       MOCLDY    18  14  86 SW5       30.16R WCI  11
$$
MNZ071>073-080-081-089-090-097-098-221400-
   Southwest Minnesota

CITY           SKY/WX    TMP DP  RH WIND       PRES   REMARKS
MONTEVIDEO     CLEAR     14  12  92 CALM      30.22S
GRANITE FALLS  CLEAR     15  13  92 CALM      30.24S
CANBY          CLEAR     16  14  93 SW3       30.22F
MARSHALL       CLEAR     13  11  92 SW7       30.22F WCI   3
REDWOOD FALLS  CLEAR     15  11  83 CALM      30.23F
PIPESTONE      CLEAR     14  12  92 CALM      30.20S
WORTHINGTON    CLEAR     12  10  92 W7        30.21S WCI   1
JACKSON        CLOUDY    19  18  93 W5        30.22S WCI  13
TRACY          CLEAR    N/A N/A N/A CALM      30.21F
SLAYTON        CLEAR     15  12  90 W5        30.21S WCI   7
$$
MNZ065>067-074>077-082>085-091>093-221400-
   South Central Minnesota

CITY           SKY/WX    TMP DP  RH WIND       PRES   REMARKS
MANKATO        CLOUDY    18  15  88 W6        30.23F WCI  10
NEW ULM        CLOUDY    14  12  92 CALM      30.24S
FAIRMONT       CLOUDY    17  14  88 NW6       30.24S WCI   9
GLENCOE        CLOUDY   N/A N/A N/A W3        30.23R
FARIBAULT      CLOUDY    19  16  86 W3        30.23S
OWATONNA       CLOUDY    19  16  86 W3        30.21F
WASECA         CLOUDY    19  16  86 CALM      30.23F
ALBERT LEA     CLOUDY    19  18  93 N6        30.22R WCI  11
$$
MNZ078>079-086>088-094>096-221400-
   Southeast Minnesota

CITY           SKY/WX    TMP DP  RH WIND       PRES   REMARKS
ROCHESTER      FAIR      18  14  84 NW7       30.20S WCI   9
RED WING       FAIR      19  16  86 CALM      30.22S
STANTON        FAIR      19  15  82 W3        30.22R
DODGE CENTER   FAIR      19  14  79 W6        30.20S WCI  11
WINONA         CLOUDY    23  18  80 NW10      30.24R WCI  12
AUSTIN         CLOUDY    21  18  86 N5        30.21S WCI  15
PRESTON        FAIR      18  15  89 NW5       30.20S WCI  11
$$
ABBREVIATIONS USED IN REMARKS
   TC - TEMPERATURES IN CELSIUS
  WCI - WIND CHILL INDEX
   HX - HEAT INDEX
  VSB - VISIBILITY
$$



USA.gov is the U.S. government's official web portal to all federal, state and local government web resources and services.